This is the latest recevied weather packets stored in our database for station/object KE0FIN. If no packets are shown the sender has not sent any weather packets the latest 10 day(s).
| Time | Temp. | Humidity | Pressure | Rain* | Wind** | Luminosity | Snow |
|---|---|---|---|---|---|---|---|
| 1778030537 | 8.89° C | 91% | 1064.4 hPa | 0 mm | - | 1 W/m² | - |
| 1778030234 | 8.89° C | 90% | 1064.1 hPa | 0 mm | - | 1 W/m² | - |
| 1778029930 | 8.89° C | 90% | 1064.1 hPa | 1.27 mm | - | 2 W/m² | - |
| 1778029629 | 8.89° C | 89% | 1064.1 hPa | 1.27 mm | - | 3 W/m² | - |
| 1778029326 | 8.89° C | 89% | 1064.3 hPa | 0 mm | - | 2 W/m² | - |
| 1778029023 | 9.44° C | 87% | 1063.9 hPa | 0 mm | - | 3 W/m² | - |
| 1778028720 | 9.44° C | 86% | 1064 hPa | 0 mm | - | 2 W/m² | - |
| 1778028415 | 9.44° C | 84% | 1063.8 hPa | 0 mm | - | 5 W/m² | - |
| 1778028113 | 10° C | 82% | 1063.7 hPa | 1.78 mm | - | 10 W/m² | - |
| 1778027809 | 10° C | 80% | 1063.5 hPa | 0 mm | - | 21 W/m² | - |
| 1778027505 | 10° C | 77% | 1063.4 hPa | 1.78 mm | - | 13 W/m² | - |
| 1778027201 | 10.56° C | 76% | 1063.5 hPa | 1.78 mm | - | 8 W/m² | - |
| 1778026898 | 10.56° C | 74% | 1063.7 hPa | 0 mm | - | 5 W/m² | - |
| 1778026593 | 11.11° C | 71% | 1063.6 hPa | 0 mm | - | 7 W/m² | - |
| 1778026291 | 11.67° C | 66% | 1063.5 hPa | 0 mm | - | 10 W/m² | - |
| 1778025988 | 11.67° C | 63% | 1063.4 hPa | 0 mm | - | 12 W/m² | - |
| 1778025686 | 11.67° C | 63% | 1063.4 hPa | 0 mm | - | 10 W/m² | - |
| 1778025383 | 11.67° C | 62% | 1063.4 hPa | 0 mm | - | 17 W/m² | - |
| 1778025081 | 11.67° C | 62% | 1063.3 hPa | 0 mm | - | 34 W/m² | - |
| 1778024777 | 11.67° C | 62% | 1063.5 hPa | 0 mm | - | 31 W/m² | - |
| 1778024474 | 11.67° C | 61% | 1063.6 hPa | 0 mm | - | 33 W/m² | - |
| 1778024171 | 11.67° C | 61% | 1063.3 hPa | 0 mm | - | 32 W/m² | - |
| 1778023869 | 11.67° C | 60% | 1063.5 hPa | 0 mm | - | 37 W/m² | - |
| 1778023566 | 11.67° C | 61% | 1063.3 hPa | 0 mm | - | 40 W/m² | - |
| 1778023264 | 11.67° C | 60% | 1063.3 hPa | 0 mm | - | 29 W/m² | - |
* Rain latest hour (hover to see other rain measurements)
** Current wind speed in m/s (hover to see current wind gust speed)